| time (UTC) | temp F | wind direction | speed MPH | gust MPH | rain 1hr in | rain 24hr in | rain mn in | humidity % | barometer mb |
| 20260507023406 | 78 | 222 | 0.0 | 0.0 | 0.00 | 0.00 | 0.00 | 98 | 1004.9 |
| 20260507022903 | 78 | 212 | 0.0 | 0.0 | 0.00 | 0.00 | 0.00 | 98 | 1004.8 |
| 20260507022359 | 79 | 168 | 0.0 | 0.0 | 0.00 | 0.00 | 0.00 | 98 | 1004.7 |
| 20260507021855 | 79 | 203 | 0.0 | 1.0 | 0.00 | 0.00 | 0.00 | 98 | 1004.8 |
| 20260507021350 | 78 | 218 | 0.0 | 0.0 | 0.00 | 0.00 | 0.00 | 98 | 1004.5 |
| 20260507020849 | 78 | 275 | 0.0 | 0.0 | 0.00 | 0.00 | 0.00 | 98 | 1004.6 |
| 20260507020345 | 79 | 292 | 1.0 | 2.0 | 0.00 | 0.00 | 0.00 | 98 | 1004.4 |
| 20260507015842 | 79 | 186 | 1.0 | 2.0 | 0.00 | 0.00 | 0.00 | 98 | 1004.5 |
| 20260507015340 | 79 | 207 | 0.0 | 0.0 | 0.00 | 0.00 | 0.00 | 97 | 1004.3 |
| 20260507014837 | 79 | 220 | 0.0 | 0.0 | 0.00 | 0.00 | 0.00 | 97 | 1004.4 |
| 20260507014333 | 79 | 225 | 1.0 | 2.0 | 0.00 | 0.00 | 0.00 | 97 | 1004.0 |
| 20260507013830 | 79 | 217 | 0.0 | 0.0 | 0.00 | 0.00 | 0.00 | 97 | 1004.0 |
| 20260507013327 | 79 | 256 | 0.0 | 0.0 | 0.00 | 0.00 | 0.00 | 97 | 1003.8 |
| 20260507012825 | 79 | 193 | 1.0 | 1.0 | 0.00 | 0.00 | 0.00 | 97 | 1004.0 |
| 20260507012320 | 79 | 205 | 0.0 | 0.0 | 0.00 | 0.00 | 0.00 | 97 | 1003.8 |
| 20260507011812 | 79 | 212 | 0.0 | 0.0 | 0.00 | 0.00 | 0.00 | 96 | 1003.9 |
| 20260507011309 | 79 | 84 | 1.0 | 3.0 | 0.00 | 0.00 | 0.00 | 96 | 1004.0 |
| 20260507010808 | 79 | 212 | 0.0 | 1.0 | 0.00 | 0.00 | 0.00 | 96 | 1003.7 |
| 20260507010304 | 80 | 195 | 0.0 | 1.0 | 0.00 | 0.00 | 0.00 | 96 | 1003.8 |
| 20260507005802 | 80 | 311 | 2.0 | 2.0 | 0.00 | 0.00 | 0.00 | 95 | 1003.8 |
| 20260507005258 | 80 | 236 | 2.0 | 3.0 | 0.00 | 0.00 | 0.00 | 95 | 1003.5 |
| 20260507004755 | 80 | 202 | 0.0 | 0.0 | 0.00 | 0.00 | 0.00 | 95 | 1003.6 |
| 20260507004252 | 80 | 72 | 1.0 | 2.0 | 0.00 | 0.00 | 0.00 | 95 | 1003.4 |
| 20260507003748 | 80 | 309 | 1.0 | 1.0 | 0.00 | 0.00 | 0.00 | 94 | 1003.3 |
| 20260507003244 | 80 | 331 | 1.0 | 1.0 | 0.00 | 0.00 | 0.00 | 94 | 1003.5 |
| 20260507002740 | 81 | 206 | 1.0 | 1.0 | 0.00 | 0.00 | 0.00 | 94 | 1003.0 |
| 20260507002236 | 81 | 192 | 1.0 | 1.0 | 0.00 | 0.00 | 0.00 | 93 | 1003.1 |
| 20260507001733 | 81 | 225 | 0.0 | 0.0 | 0.00 | 0.00 | 0.00 | 93 | 1003.0 |
| 20260507001231 | 81 | 199 | 2.0 | 2.0 | 0.00 | 0.00 | 0.00 | 93 | 1003.2 |
| 20260507000727 | 81 | 284 | 1.0 | 1.0 | 0.00 | 0.00 | 0.00 | 93 | 1003.0 |
| 20260507000222 | 81 | 166 | 1.0 | 2.0 | 0.00 | 0.00 | 0.00 | 93 | 1003.0 |
| 20260506235720 | 81 | 142 | 1.0 | 1.0 | 0.00 | 0.00 | 0.00 | 93 | 1002.9 |
| 20260506235215 | 81 | 259 | 2.0 | 2.0 | 0.00 | 0.00 | 0.00 | 93 | 1002.8 |
| 20260506234712 | 81 | 122 | 1.0 | 2.0 | 0.00 | 0.00 | 0.00 | 93 | 1002.8 |
| 20260506234210 | 81 | 201 | 1.0 | 3.0 | 0.00 | 0.00 | 0.00 | 93 | 1002.6 |
| 20260506233707 | 81 | 182 | 1.0 | 3.0 | 0.00 | 0.00 | 0.00 | 93 | 1002.7 |
| 20260506233203 | 81 | 102 | 2.0 | 3.0 | 0.00 | 0.00 | 0.00 | 93 | 1002.9 |
| 20260506232700 | 81 | 268 | 1.0 | 2.0 | 0.00 | 0.00 | 0.00 | 92 | 1002.7 |
| 20260506232155 | 82 | 226 | 2.0 | 2.0 | 0.00 | 0.00 | 0.00 | 92 | 1002.7 |
| 20260506231652 | 82 | 202 | 1.0 | 2.0 | 0.00 | 0.00 | 0.00 | 91 | 1002.6 |
| 20260506231151 | 82 | 17 | 3.0 | 4.0 | 0.00 | 0.00 | 0.00 | 91 | 1002.6 |
| 20260506230647 | 83 | 349 | 2.0 | 3.0 | 0.00 | 0.00 | 0.00 | 90 | 1002.6 |
| 20260506230144 | 83 | 213 | 0.0 | 1.0 | 0.00 | 0.00 | 0.00 | 90 | 1002.6 |
| 20260506225640 | 83 | 274 | 0.0 | 1.0 | 0.00 | 0.00 | 0.00 | 90 | 1002.6 |
| 20260506225137 | 83 | 210 | 0.0 | 1.0 | 0.00 | 0.00 | 0.00 | 90 | 1002.3 |
| 20260506224634 | 83 | 232 | 1.0 | 2.0 | 0.00 | 0.00 | 0.00 | 90 | 1002.6 |
| 20260506224130 | 84 | 114 | 3.0 | 3.0 | 0.00 | 0.00 | 0.00 | 89 | 1002.5 |
| 20260506223627 | 84 | 199 | 0.0 | 1.0 | 0.00 | 0.00 | 0.00 | 89 | 1002.5 |
| 20260506223123 | 84 | 260 | 3.0 | 4.0 | 0.00 | 0.00 | 0.00 | 88 | 1002.3 |
| 20260506222620 | 84 | 207 | 1.0 | 2.0 | 0.00 | 0.00 | 0.00 | 89 | 1002.4 |
| 20260506222116 | 84 | 27 | 2.0 | 4.0 | 0.00 | 0.00 | 0.00 | 88 | 1002.5 |
| 20260506221614 | 85 | 204 | 0.0 | 1.0 | 0.00 | 0.00 | 0.00 | 87 | 1002.2 |
| 20260506221112 | 84 | 225 | 1.0 | 2.0 | 0.00 | 0.00 | 0.00 | 88 | 1002.4 |
| 20260506220608 | 85 | 163 | 1.0 | 1.0 | 0.00 | 0.00 | 0.00 | 87 | 1002.5 |
| 20260506215600 | 84 | 203 | 1.0 | 2.0 | 0.00 | 0.00 | 0.00 | 87 | 1002.4 |
| 20260506215055 | 85 | 210 | 0.0 | 1.0 | 0.00 | 0.00 | 0.00 | 87 | 1002.6 |
| 20260506214553 | 84 | 208 | 0.0 | 0.0 | 0.00 | 0.00 | 0.00 | 87 | 1002.4 |
| 20260506214050 | 85 | 205 | 1.0 | 2.0 | 0.00 | 0.00 | 0.00 | 86 | 1002.5 |
| 20260506213548 | 86 | 209 | 1.0 | 2.0 | 0.00 | 0.00 | 0.00 | 85 | 1002.5 |
| 20260506213045 | 86 | 184 | 0.0 | 0.0 | 0.00 | 0.00 | 0.00 | 86 | 1002.6 |
| 20260506212542 | 86 | 188 | 1.0 | 2.0 | 0.00 | 0.00 | 0.00 | 85 | 1002.3 |
| 20260506212037 | 86 | 205 | 1.0 | 2.0 | 0.00 | 0.00 | 0.00 | 85 | 1002.5 |
| 20260506211533 | 86 | 202 | 1.0 | 2.0 | 0.00 | 0.00 | 0.00 | 85 | 1002.5 |
| 20260506211030 | 87 | 36 | 3.0 | 3.0 | 0.00 | 0.00 | 0.00 | 83 | 1002.2 |
| 20260506210527 | 88 | 159 | 2.0 | 2.0 | 0.00 | 0.00 | 0.00 | 81 | 1002.3 |
| 20260506210023 | 87 | 190 | 1.0 | 2.0 | 0.00 | 0.00 | 0.00 | 82 | 1002.5 |
| 20260506205520 | 87 | 341 | 2.0 | 2.0 | 0.00 | 0.00 | 0.00 | 83 | 1002.7 |
| 20260506205015 | 87 | 210 | 2.0 | 3.0 | 0.00 | 0.00 | 0.00 | 82 | 1002.5 |
| 20260506204514 | 87 | 186 | 3.0 | 4.0 | 0.00 | 0.00 | 0.00 | 83 | 1002.4 |
| 20260506204010 | 88 | 327 | 1.0 | 2.0 | 0.00 | 0.00 | 0.00 | 81 | 1002.4 |
| 20260506203509 | 87 | 215 | 2.0 | 2.0 | 0.00 | 0.00 | 0.00 | 81 | 1002.8 |
| 20260506203005 | 88 | 156 | 1.0 | 2.0 | 0.00 | 0.00 | 0.00 | 81 | 1002.8 |
| 20260506202502 | 88 | 160 | 2.0 | 3.0 | 0.00 | 0.00 | 0.00 | 81 | 1002.8 |
| 20260506201958 | 87 | 207 | 1.0 | 1.0 | 0.00 | 0.00 | 0.00 | 84 | 1002.6 |
| 20260506201456 | 86 | 159 | 2.0 | 2.0 | 0.00 | 0.00 | 0.00 | 84 | 1003.1 |
| 20260506200952 | 86 | 189 | 2.0 | 2.0 | 0.00 | 0.00 | 0.00 | 85 | 1003.3 |
| 20260506200449 | 86 | 89 | 2.0 | 3.0 | 0.00 | 0.00 | 0.00 | 85 | 1003.0 |
| 20260506195945 | 86 | 191 | 1.0 | 1.0 | 0.00 | 0.00 | 0.00 | 85 | 1003.1 |
| 20260506195442 | 86 | 184 | 3.0 | 4.0 | 0.00 | 0.00 | 0.00 | 84 | 1003.2 |
| 20260506194939 | 85 | 209 | 1.0 | 2.0 | 0.00 | 0.00 | 0.00 | 85 | 1003.3 |
| 20260506194436 | 86 | 197 | 1.0 | 1.0 | 0.00 | 0.00 | 0.00 | 84 | 1003.2 |
| 20260506193933 | 86 | 189 | 1.0 | 1.0 | 0.00 | 0.00 | 0.00 | 84 | 1003.4 |
| 20260506193430 | 87 | 214 | 1.0 | 1.0 | 0.00 | 0.00 | 0.00 | 82 | 1003.5 |
| 20260506192926 | 87 | 192 | 1.0 | 2.0 | 0.00 | 0.00 | 0.00 | 82 | 1003.5 |
| 20260506192424 | 87 | 210 | 2.0 | 2.0 | 0.00 | 0.00 | 0.00 | 83 | 1003.7 |
| 20260506191920 | 87 | 186 | 3.0 | 4.0 | 0.00 | 0.00 | 0.00 | 83 | 1003.6 |
| 20260506191417 | 86 | 181 | 4.0 | 7.0 | 0.00 | 0.00 | 0.00 | 84 | 1003.4 |
| 20260506190914 | 86 | 184 | 3.0 | 3.0 | 0.00 | 0.00 | 0.00 | 85 | 1003.7 |
| 20260506190410 | 84 | 196 | 0.0 | 1.0 | 0.00 | 0.00 | 0.00 | 88 | 1003.7 |
| 20260506185907 | 84 | 175 | 4.0 | 7.0 | 0.00 | 0.00 | 0.00 | 88 | 1004.0 |
| 20260506185404 | 82 | 184 | 2.0 | 3.0 | 0.00 | 0.00 | 0.00 | 90 | 1004.1 |
| 20260506184901 | 82 | 248 | 1.0 | 2.0 | 0.00 | 0.00 | 0.00 | 91 | 1004.2 |
| 20260506184358 | 82 | 195 | 0.0 | 1.0 | 0.00 | 0.00 | 0.00 | 91 | 1003.8 |
| 20260506183855 | 83 | 129 | 1.0 | 2.0 | 0.00 | 0.00 | 0.00 | 90 | 1004.0 |
| 20260506183350 | 83 | 198 | 0.0 | 1.0 | 0.00 | 0.00 | 0.00 | 90 | 1004.0 |
| 20260506182848 | 83 | 192 | 1.0 | 1.0 | 0.00 | 0.00 | 0.00 | 89 | 1004.1 |
| 20260506182345 | 84 | 198 | 0.0 | 0.0 | 0.00 | 0.00 | 0.00 | 88 | 1004.1 |
| 20260506181842 | 84 | 182 | 0.0 | 1.0 | 0.00 | 0.00 | 0.00 | 88 | 1004.0 |
| 20260506181341 | 84 | 201 | 0.0 | 1.0 | 0.00 | 0.00 | 0.00 | 87 | 1004.0 |
| 20260506180837 | 85 | 196 | 0.0 | 1.0 | 0.00 | 0.00 | 0.00 | 86 | 1004.1 |
| 20260506180333 | 85 | 214 | 0.0 | 0.0 | 0.00 | 0.00 | 0.00 | 85 | 1004.1 |
| 20260506175829 | 86 | 184 | 1.0 | 1.0 | 0.00 | 0.00 | 0.00 | 84 | 1004.0 |
| 20260506175327 | 86 | 192 | 2.0 | 2.0 | 0.00 | 0.00 | 0.00 | 82 | 1003.9 |
| 20260506174824 | 87 | 188 | 1.0 | 1.0 | 0.00 | 0.00 | 0.00 | 82 | 1003.9 |
| 20260506174321 | 87 | 205 | 0.0 | 1.0 | 0.00 | 0.00 | 0.00 | 81 | 1003.9 |
| 20260506173819 | 87 | 207 | 0.0 | 0.0 | 0.00 | 0.00 | 0.00 | 84 | 1003.9 |
| 20260506173315 | 86 | 207 | 1.0 | 2.0 | 0.00 | 0.00 | 0.00 | 85 | 1004.1 |
| 20260506172812 | 87 | 218 | 1.0 | 1.0 | 0.00 | 0.00 | 0.00 | 85 | 1003.9 |
| 20260506172309 | 86 | 214 | 1.0 | 1.0 | 0.00 | 0.00 | 0.00 | 87 | 1004.2 |
| 20260506171806 | 85 | 178 | 1.0 | 2.0 | 0.00 | 0.00 | 0.00 | 89 | 1004.0 |
| 20260506171303 | 83 | 207 | 0.0 | 1.0 | 0.00 | 0.00 | 0.00 | 93 | 1004.0 |
| 20260506170801 | 82 | 170 | 0.0 | 0.0 | 0.00 | 0.00 | 0.00 | 95 | 1004.0 |
| 20260506170257 | 81 | 188 | 1.0 | 1.0 | 0.00 | 0.00 | 0.00 | 97 | 1004.0 |
| 20260506165756 | 81 | 192 | 0.0 | 1.0 | 0.00 | 0.00 | 0.00 | 97 | 1004.0 |
| 20260506165253 | 81 | 213 | 0.0 | 1.0 | 0.00 | 0.00 | 0.00 | 99 | 1004.2 |
| 20260506164750 | 79 | 191 | 0.0 | 0.0 | 0.00 | 0.00 | 0.00 | 99 | 1004.0 |
| 20260506164246 | 79 | 202 | 0.0 | 0.0 | 0.00 | 0.00 | 0.00 | 99 | 1004.0 |
| 20260506163743 | 79 | 145 | 0.0 | 1.0 | 0.00 | 0.00 | 0.00 | 99 | 1004.3 |
| 20260506163238 | 79 | 184 | 1.0 | 1.0 | 0.00 | 0.00 | 0.00 | 99 | 1004.0 |
| 20260506162734 | 79 | 204 | 0.0 | 0.0 | 0.00 | 0.00 | 0.00 | 99 | 1004.1 |
| 20260506162232 | 78 | 203 | 0.0 | 1.0 | 0.00 | 0.00 | 0.00 | 99 | 1004.2 |
| 20260506161729 | 79 | 198 | 0.0 | 0.0 | 0.00 | 0.00 | 0.00 | 99 | 1004.2 |
| 20260506161227 | 78 | 200 | 1.0 | 2.0 | 0.00 | 0.00 | 0.00 | 99 | 1004.3 |
| 20260506160724 | 79 | 217 | 2.0 | 3.0 | 0.00 | 0.00 | 0.00 | 99 | 1004.0 |
| 20260506160220 | 79 | 194 | 2.0 | 2.0 | 0.00 | 0.00 | 0.00 | 99 | 1004.1 |
| 20260506155719 | 79 | 200 | 0.0 | 0.0 | 0.00 | 0.00 | 0.00 | 99 | 1003.9 |
| 20260506155216 | 79 | 218 | 0.0 | 0.0 | 0.00 | 0.00 | 0.00 | 98 | 1003.6 |
| 20260506153323 | 79 | 200 | 1.0 | 2.0 | 0.00 | 0.00 | 0.00 | 96 | 1003.5 |
| 20260506152820 | 79 | 179 | 0.0 | 0.0 | 0.00 | 0.00 | 0.00 | 97 | 1003.5 |
| 20260506152318 | 79 | 180 | 1.0 | 1.0 | 0.00 | 0.00 | 0.00 | 97 | 1003.6 |
| 20260506151816 | 79 | 197 | 0.0 | 0.0 | 0.00 | 0.00 | 0.00 | 97 | 1003.5 |
| 20260506151312 | 79 | 221 | 2.0 | 2.0 | 0.00 | 0.00 | 0.00 | 97 | 1003.5 |
| 20260506150809 | 79 | 202 | 0.0 | 0.0 | 0.00 | 0.00 | 0.00 | 97 | 1003.6 |
| 20260506150307 | 79 | 175 | 2.0 | 2.0 | 0.00 | 0.00 | 0.00 | 97 | 1003.5 |
| 20260506145803 | 79 | 71 | 3.0 | 6.0 | 0.00 | 0.00 | 0.00 | 97 | 1003.5 |
| 20260506145300 | 79 | 115 | 2.0 | 4.0 | 0.00 | 0.00 | 0.00 | 97 | 1003.4 |
| 20260506144757 | 79 | 106 | 3.0 | 4.0 | 0.00 | 0.00 | 0.00 | 96 | 1003.4 |
| 20260506144254 | 79 | 194 | 0.0 | 0.0 | 0.00 | 0.00 | 0.00 | 96 | 1003.4 |
| 20260506143752 | 79 | 196 | 2.0 | 2.0 | 0.00 | 0.00 | 0.00 | 95 | 1003.2 |
| 20260506143249 | 79 | 203 | 1.0 | 1.0 | 0.00 | 0.00 | 0.00 | 95 | 1003.3 |
| 20260506142747 | 79 | 202 | 1.0 | 2.0 | 0.00 | 0.00 | 0.00 | 96 | 1003.4 |
| 20260506142245 | 79 | 196 | 0.0 | 0.0 | 0.00 | 0.00 | 0.00 | 96 | 1003.6 |
| 20260506141743 | 79 | 198 | 1.0 | 1.0 | 0.00 | 0.00 | 0.00 | 96 | 1003.4 |
| 20260506141241 | 79 | 132 | 1.0 | 3.0 | 0.00 | 0.00 | 0.00 | 95 | 1003.5 |
| 20260506140738 | 79 | 199 | 1.0 | 1.0 | 0.00 | 0.00 | 0.00 | 95 | 1003.5 |
| 20260506140235 | 79 | 176 | 1.0 | 1.0 | 0.00 | 0.00 | 0.00 | 95 | 1003.5 |
| 20260506135732 | 79 | 97 | 1.0 | 1.0 | 0.00 | 0.00 | 0.00 | 95 | 1003.4 |
| 20260506135228 | 79 | 193 | 2.0 | 2.0 | 0.00 | 0.00 | 0.00 | 95 | 1003.2 |
| 20260506134725 | 79 | 159 | 3.0 | 4.0 | 0.00 | 0.00 | 0.00 | 95 | 1003.1 |
| 20260506134221 | 79 | 192 | 1.0 | 1.0 | 0.00 | 0.00 | 0.00 | 96 | 1003.1 |
| 20260506133719 | 79 | 188 | 1.0 | 1.0 | 0.00 | 0.00 | 0.00 | 96 | 1003.1 |
| 20260506133215 | 79 | 194 | 3.0 | 3.0 | 0.00 | 0.00 | 0.00 | 96 | 1003.0 |
| 20260506132712 | 79 | 198 | 1.0 | 1.0 | 0.00 | 0.00 | 0.00 | 96 | 1003.2 |
| 20260506132209 | 79 | 189 | 0.0 | 1.0 | 0.00 | 0.00 | 0.00 | 96 | 1003.4 |
| 20260506131707 | 79 | 226 | 1.0 | 2.0 | 0.00 | 0.00 | 0.00 | 96 | 1003.3 |
| 20260506131203 | 79 | 175 | 2.0 | 2.0 | 0.00 | 0.00 | 0.00 | 96 | 1003.2 |
| 20260506130700 | 78 | 168 | 1.0 | 2.0 | 0.00 | 0.00 | 0.00 | 97 | 1003.2 |
| 20260506130157 | 78 | 47 | 3.0 | 3.0 | 0.00 | 0.00 | 0.00 | 97 | 1003.2 |
| 20260506125655 | 78 | 169 | 3.0 | 7.0 | 0.00 | 0.00 | 0.00 | 97 | 1003.2 |
| 20260506125153 | 78 | 207 | 0.0 | 0.0 | 0.00 | 0.00 | 0.00 | 97 | 1003.0 |
| 20260506124650 | 78 | 200 | 0.0 | 1.0 | 0.00 | 0.00 | 0.00 | 97 | 1002.9 |
| 20260506124148 | 78 | 208 | 1.0 | 1.0 | 0.00 | 0.00 | 0.00 | 97 | 1002.9 |
| 20260506123645 | 78 | 195 | 1.0 | 1.0 | 0.00 | 0.00 | 0.00 | 97 | 1003.0 |
| 20260506123144 | 78 | 215 | 0.0 | 0.0 | 0.00 | 0.00 | 0.00 | 97 | 1003.0 |
| 20260506122640 | 78 | 262 | 1.0 | 2.0 | 0.00 | 0.00 | 0.00 | 97 | 1003.0 |
| 20260506122138 | 78 | 320 | 0.0 | 1.0 | 0.00 | 0.00 | 0.00 | 97 | 1002.8 |
| 20260506121635 | 78 | 320 | 0.0 | 1.0 | 0.00 | 0.00 | 0.00 | 96 | 1002.9 |
| 20260506121131 | 78 | 320 | 1.0 | 1.0 | 0.00 | 0.00 | 0.00 | 97 | 1002.9 |
| 20260506120630 | 78 | 320 | 2.0 | 3.0 | 0.00 | 0.00 | 0.00 | 96 | 1002.8 |
| 20260506120127 | 78 | 320 | 0.0 | 0.0 | 0.00 | 0.00 | 0.00 | 96 | 1002.6 |
| 20260506115625 | 78 | 320 | 0.0 | 0.0 | 0.00 | 0.00 | 0.00 | 96 | 1002.7 |
| 20260506115123 | 78 | 320 | 0.0 | 0.0 | 0.00 | 0.00 | 0.00 | 96 | 1002.9 |
| 20260506114620 | 78 | 320 | 1.0 | 2.0 | 0.00 | 0.00 | 0.00 | 96 | 1002.9 |
| 20260506114118 | 78 | 320 | 1.0 | 1.0 | 0.00 | 0.00 | 0.00 | 97 | 1002.6 |
| 20260506113616 | 78 | 320 | 0.0 | 0.0 | 0.00 | 0.00 | 0.00 | 97 | 1002.3 |
| 20260506113113 | 78 | 320 | 1.0 | 1.0 | 0.00 | 0.00 | 0.00 | 97 | 1002.5 |
| 20260506112609 | 78 | 317 | 0.0 | 0.0 | 0.00 | 0.00 | 0.00 | 97 | 1002.5 |
| 20260506112107 | 78 | 306 | 0.0 | 0.0 | 0.00 | 0.00 | 0.00 | 97 | 1002.6 |
| 20260506111604 | 78 | 291 | 2.0 | 3.0 | 0.00 | 0.00 | 0.00 | 97 | 1002.3 |
| 20260506111102 | 78 | 264 | 0.0 | 0.0 | 0.00 | 0.00 | 0.00 | 97 | 1002.5 |
| 20260506110559 | 78 | 201 | 1.0 | 1.0 | 0.00 | 0.00 | 0.00 | 96 | 1002.5 |
| 20260506110056 | 78 | 64 | 1.0 | 2.0 | 0.00 | 0.00 | 0.00 | 96 | 1002.4 |
| 20260506105553 | 78 | 221 | 0.0 | 0.0 | 0.00 | 0.00 | 0.00 | 96 | 1002.6 |
| 20260506105050 | 78 | 219 | 0.0 | 0.0 | 0.00 | 0.00 | 0.00 | 96 | 1002.6 |
| 20260506104548 | 78 | 223 | 0.0 | 0.0 | 0.00 | 0.00 | 0.00 | 96 | 1002.3 |
| 20260506104045 | 78 | 205 | 2.0 | 2.0 | 0.00 | 0.00 | 0.00 | 96 | 1002.6 |
| 20260506103542 | 78 | 211 | 1.0 | 2.0 | 0.00 | 0.00 | 0.00 | 96 | 1002.5 |
| 20260506103039 | 78 | 221 | 0.0 | 0.0 | 0.00 | 0.00 | 0.00 | 96 | 1002.5 |
| 20260506102538 | 78 | 176 | 0.0 | 1.0 | 0.00 | 0.00 | 0.00 | 96 | 1002.6 |
| 20260506102035 | 78 | 210 | 0.0 | 0.0 | 0.00 | 0.00 | 0.00 | 96 | 1002.4 |
| 20260506101531 | 78 | 196 | 0.0 | 0.0 | 0.00 | 0.00 | 0.00 | 96 | 1002.6 |
| 20260506101028 | 78 | 204 | 1.0 | 2.0 | 0.00 | 0.00 | 0.00 | 96 | 1002.4 |
| 20260506100526 | 78 | 216 | 0.0 | 0.0 | 0.00 | 0.00 | 0.00 | 96 | 1002.4 |
| 20260506100024 | 78 | 206 | 0.0 | 0.0 | 0.00 | 0.00 | 0.00 | 96 | 1002.3 |
| 20260506095523 | 78 | 198 | 0.0 | 1.0 | 0.00 | 0.00 | 0.00 | 96 | 1002.2 |
| 20260506095019 | 78 | 198 | 0.0 | 0.0 | 0.00 | 0.00 | 0.00 | 96 | 1002.3 |
| 20260506094517 | 78 | 216 | 0.0 | 0.0 | 0.00 | 0.00 | 0.00 | 96 | 1002.2 |
| 20260506094014 | 78 | 203 | 2.0 | 3.0 | 0.00 | 0.00 | 0.00 | 96 | 1002.2 |
| 20260506093513 | 78 | 162 | 0.0 | 1.0 | 0.00 | 0.00 | 0.00 | 96 | 1002.2 |
| 20260506093010 | 78 | 211 | 0.0 | 0.0 | 0.00 | 0.00 | 0.00 | 96 | 1002.1 |
| 20260506092508 | 78 | 204 | 0.0 | 0.0 | 0.00 | 0.00 | 0.00 | 96 | 1002.3 |
| 20260506092004 | 78 | 210 | 0.0 | 0.0 | 0.00 | 0.00 | 0.00 | 96 | 1002.3 |
| 20260506091503 | 78 | 206 | 1.0 | 2.0 | 0.00 | 0.00 | 0.00 | 96 | 1001.9 |
| 20260506090959 | 78 | 206 | 0.0 | 0.0 | 0.00 | 0.00 | 0.00 | 96 | 1002.0 |
| 20260506090457 | 78 | 209 | 0.0 | 0.0 | 0.00 | 0.00 | 0.00 | 95 | 1001.8 |
| 20260506085953 | 78 | 188 | 1.0 | 1.0 | 0.00 | 0.00 | 0.00 | 95 | 1002.1 |
| 20260506085450 | 78 | 180 | 1.0 | 1.0 | 0.00 | 0.00 | 0.00 | 95 | 1001.8 |
| 20260506084946 | 78 | 210 | 0.0 | 0.0 | 0.00 | 0.00 | 0.00 | 95 | 1001.9 |
| 20260506084443 | 78 | 188 | 2.0 | 2.0 | 0.00 | 0.00 | 0.00 | 95 | 1002.1 |
| 20260506083939 | 78 | 195 | 1.0 | 2.0 | 0.00 | 0.00 | 0.00 | 95 | 1002.0 |
| 20260506083437 | 78 | 212 | 1.0 | 2.0 | 0.00 | 0.00 | 0.00 | 95 | 1002.1 |
| 20260506082934 | 78 | 201 | 2.0 | 3.0 | 0.00 | 0.00 | 0.00 | 95 | 1001.7 |
| 20260506082431 | 78 | 160 | 1.0 | 2.0 | 0.00 | 0.00 | 0.00 | 95 | 1001.8 |
| 20260506081926 | 78 | 196 | 2.0 | 3.0 | 0.00 | 0.00 | 0.00 | 95 | 1001.8 |
| 20260506081425 | 78 | 188 | 1.0 | 2.0 | 0.00 | 0.00 | 0.00 | 95 | 1002.0 |
| 20260506080922 | 78 | 199 | 1.0 | 1.0 | 0.00 | 0.00 | 0.00 | 95 | 1002.0 |
| 20260506080419 | 78 | 195 | 0.0 | 0.0 | 0.00 | 0.00 | 0.00 | 95 | 1001.9 |
| 20260506073403 | 78 | 144 | 4.0 | 6.0 | 0.00 | 0.00 | 0.00 | 93 | 1002.1 |
| 20260506072900 | 78 | 136 | 2.0 | 3.0 | 0.00 | 0.00 | 0.00 | 93 | 1002.1 |
| 20260506072357 | 78 | 147 | 4.0 | 4.0 | 0.00 | 0.00 | 0.00 | 93 | 1002.1 |
| 20260506071854 | 78 | 179 | 0.0 | 1.0 | 0.00 | 0.00 | 0.00 | 93 | 1002.1 |
| 20260506071353 | 78 | 135 | 2.0 | 3.0 | 0.00 | 0.00 | 0.00 | 93 | 1002.4 |
| 20260506070849 | 78 | 177 | 1.0 | 1.0 | 0.00 | 0.00 | 0.00 | 93 | 1002.6 |
| 20260506070346 | 78 | 116 | 2.0 | 3.0 | 0.00 | 0.00 | 0.00 | 93 | 1002.7 |
| 20260506062323 | 78 | 192 | 2.0 | 2.0 | 0.00 | 0.00 | 0.00 | 95 | 1003.1 |
| 20260506061819 | 78 | 196 | 1.0 | 1.0 | 0.00 | 0.00 | 0.00 | 95 | 1003.2 |
| 20260506061316 | 78 | 61 | 0.0 | 1.0 | 0.00 | 0.00 | 0.00 | 95 | 1003.1 |
| 20260506060814 | 78 | 261 | 0.0 | 0.0 | 0.00 | 0.00 | 0.00 | 95 | 1002.9 |
| 20260506060312 | 78 | 182 | 0.0 | 1.0 | 0.00 | 0.00 | 0.00 | 95 | 1002.9 |
| 20260506051244 | 78 | 200 | 1.0 | 2.0 | 0.00 | 0.00 | 0.00 | 95 | 1003.2 |
| 20260506050742 | 78 | 130 | 2.0 | 3.0 | 0.00 | 0.00 | 0.00 | 95 | 1003.1 |
| 20260506050239 | 78 | 160 | 4.0 | 6.0 | 0.00 | 0.00 | 0.00 | 95 | 1003.2 |
| 20260506044730 | 78 | 197 | 3.0 | 3.0 | 0.00 | 0.00 | 0.00 | 95 | 1003.3 |
| 20260506044227 | 78 | 146 | 1.0 | 2.0 | 0.00 | 0.00 | 0.00 | 95 | 1003.4 |
| 20260506043724 | 78 | 195 | 0.0 | 1.0 | 0.00 | 0.00 | 0.00 | 95 | 1003.4 |
| 20260506043222 | 78 | 156 | 2.0 | 3.0 | 0.00 | 0.00 | 0.00 | 95 | 1003.2 |
| 20260506042720 | 78 | 150 | 1.0 | 2.0 | 0.00 | 0.00 | 0.00 | 95 | 1003.0 |
| 20260506042218 | 78 | 177 | 3.0 | 3.0 | 0.00 | 0.00 | 0.00 | 95 | 1002.9 |
| 20260506041716 | 78 | 194 | 4.0 | 7.0 | 0.00 | 0.00 | 0.00 | 95 | 1003.2 |
| 20260506041213 | 78 | 181 | 1.0 | 1.0 | 0.00 | 0.00 | 0.00 | 95 | 1003.3 |
| 20260506040711 | 78 | 161 | 3.0 | 4.0 | 0.00 | 0.00 | 0.00 | 95 | 1003.2 |
| 20260506040207 | 79 | 199 | 0.0 | 1.0 | 0.00 | 0.00 | 0.00 | 95 | 1003.0 |
| 20260506035704 | 79 | 202 | 0.0 | 1.0 | 0.00 | 0.00 | 0.00 | 95 | 1003.1 |
| 20260506035200 | 79 | 184 | 2.0 | 2.0 | 0.00 | 0.00 | 0.00 | 95 | 1003.0 |
| 20260506034652 | 78 | 161 | 4.0 | 7.0 | 0.00 | 0.00 | 0.00 | 95 | 1002.9 |
| 20260506034149 | 78 | 188 | 1.0 | 2.0 | 0.00 | 0.00 | 0.00 | 95 | 1002.7 |
| 20260506033647 | 78 | 169 | 3.0 | 4.0 | 0.00 | 0.00 | 0.00 | 95 | 1002.8 |
| 20260506033143 | 78 | 184 | 2.0 | 3.0 | 0.00 | 0.00 | 0.00 | 95 | 1002.7 |
| 20260506032641 | 78 | 172 | 2.0 | 3.0 | 0.00 | 0.00 | 0.00 | 95 | 1002.5 |
| 20260506032137 | 78 | 168 | 4.0 | 6.0 | 0.00 | 0.00 | 0.00 | 95 | 1002.6 |
| 20260506031634 | 78 | 152 | 4.0 | 7.0 | 0.00 | 0.00 | 0.00 | 95 | 1002.3 |
| 20260506031131 | 78 | 201 | 5.0 | 11.0 | 0.00 | 0.00 | 0.00 | 95 | 1002.5 |
| 20260506030630 | 78 | 205 | 1.0 | 1.0 | 0.00 | 0.00 | 0.00 | 95 | 1002.4 |
| 20260506030127 | 78 | 131 | 3.0 | 3.0 | 0.00 | 0.00 | 0.00 | 95 | 1002.3 |
| 20260506025623 | 78 | 83 | 2.0 | 3.0 | 0.00 | 0.00 | 0.00 | 95 | 1002.3 |
| 20260506025119 | 78 | 166 | 6.0 | 9.0 | 0.00 | 0.00 | 0.00 | 95 | 1002.2 |
| 20260506024617 | 78 | 201 | 1.0 | 1.0 | 0.00 | 0.00 | 0.00 | 95 | 1002.2 |
| 20260506024113 | 78 | 165 | 2.0 | 3.0 | 0.00 | 0.00 | 0.00 | 95 | 1002.2 |